Year,Month,Day,Hour,Minute,Value (Times are PST for temperature in C)
2021,08,12,00,00,21.50
2021,08,12,00,01,21.40
2021,08,12,00,02,21.40
2021,08,12,00,03,21.30
2021,08,12,00,04,21.30
2021,08,12,00,05,21.30
2021,08,12,00,06,21.30
2021,08,12,00,07,21.20
2021,08,12,00,08,21.30
2021,08,12,00,09,21.30
2021,08,12,00,10,21.20
2021,08,12,00,11,21.20
2021,08,12,00,12,21.20
2021,08,12,00,13,21.20
2021,08,12,00,14,21.20
2021,08,12,00,15,21.20
2021,08,12,00,16,21.10
2021,08,12,00,17,21.10
2021,08,12,00,18,21.10
2021,08,12,00,19,21.00
2021,08,12,00,20,20.90
2021,08,12,00,21,20.90
2021,08,12,00,22,20.80
2021,08,12,00,23,20.80
2021,08,12,00,24,20.80
2021,08,12,00,25,20.70
2021,08,12,00,26,20.70
2021,08,12,00,27,20.70
2021,08,12,00,28,20.70
2021,08,12,00,29,20.70
2021,08,12,00,30,20.70
2021,08,12,00,31,20.60
2021,08,12,00,32,20.60
2021,08,12,00,33,20.70
2021,08,12,00,34,20.60
2021,08,12,00,35,20.60
2021,08,12,00,36,20.60
2021,08,12,00,37,20.60
2021,08,12,00,38,20.50
2021,08,12,00,39,20.50
2021,08,12,00,40,20.50
2021,08,12,00,41,20.50
2021,08,12,00,42,20.40
2021,08,12,00,43,20.40
2021,08,12,00,44,20.40
2021,08,12,00,45,20.40
2021,08,12,00,46,20.30
2021,08,12,00,47,20.30
2021,08,12,00,48,20.30
2021,08,12,00,49,20.30
2021,08,12,00,50,20.20
2021,08,12,00,51,20.20
2021,08,12,00,52,20.20
2021,08,12,00,53,20.20
2021,08,12,00,54,20.20
2021,08,12,00,55,20.10
2021,08,12,00,56,20.10
2021,08,12,00,57,20.10
2021,08,12,00,58,20.10
2021,08,12,00,59,20.00
2021,08,12,01,00,20.00
2021,08,12,01,01,20.00
2021,08,12,01,02,20.00
2021,08,12,01,03,20.00
2021,08,12,01,04,20.00
2021,08,12,01,05,20.00
2021,08,12,01,06,19.90
2021,08,12,01,07,19.90
2021,08,12,01,08,19.90
2021,08,12,01,09,19.90
2021,08,12,01,10,20.00
2021,08,12,01,11,19.90
2021,08,12,01,12,20.00
2021,08,12,01,13,19.90
2021,08,12,01,14,19.90
2021,08,12,01,15,19.90
2021,08,12,01,16,19.90
2021,08,12,01,17,19.90
2021,08,12,01,18,19.90
2021,08,12,01,19,19.90
2021,08,12,01,20,19.90
2021,08,12,01,21,19.90
2021,08,12,01,22,19.90
2021,08,12,01,23,19.90
2021,08,12,01,24,19.90
2021,08,12,01,25,19.90
2021,08,12,01,26,19.90
2021,08,12,01,27,19.90
2021,08,12,01,28,19.90
2021,08,12,01,29,19.90
2021,08,12,01,30,19.90
2021,08,12,01,31,19.90
2021,08,12,01,32,19.90
2021,08,12,01,33,19.90
2021,08,12,01,34,19.90
2021,08,12,01,35,19.90
2021,08,12,01,36,19.90
2021,08,12,01,37,19.90
2021,08,12,01,38,19.90
2021,08,12,01,39,19.90
2021,08,12,01,40,19.90
2021,08,12,01,41,19.90
2021,08,12,01,42,19.90
2021,08,12,01,43,19.90
2021,08,12,01,44,19.90
2021,08,12,01,45,19.90
2021,08,12,01,46,19.90
2021,08,12,01,47,19.90
2021,08,12,01,48,19.90
2021,08,12,01,49,19.90
2021,08,12,01,50,19.90
2021,08,12,01,51,19.90
2021,08,12,01,52,19.90
2021,08,12,01,53,19.90
2021,08,12,01,54,19.90
2021,08,12,01,55,19.90
2021,08,12,01,56,19.90
2021,08,12,01,57,19.90
2021,08,12,01,58,19.90
2021,08,12,01,59,19.80
2021,08,12,02,00,19.80
2021,08,12,02,01,19.80
2021,08,12,02,02,19.80
2021,08,12,02,03,19.80
2021,08,12,02,04,19.80
2021,08,12,02,05,19.80
2021,08,12,02,06,19.80
2021,08,12,02,07,19.80
2021,08,12,02,08,19.70
2021,08,12,02,09,19.70
2021,08,12,02,10,19.70
2021,08,12,02,11,19.70
2021,08,12,02,12,19.70
2021,08,12,02,13,19.70
2021,08,12,02,14,19.70
2021,08,12,02,15,19.70
2021,08,12,02,16,19.70
2021,08,12,02,17,19.70
2021,08,12,02,18,19.60
2021,08,12,02,19,19.60
2021,08,12,02,20,19.60
2021,08,12,02,21,19.60
2021,08,12,02,22,19.60
2021,08,12,02,23,19.60
2021,08,12,02,24,19.60
2021,08,12,02,25,19.60
2021,08,12,02,26,19.60
2021,08,12,02,27,19.60
2021,08,12,02,28,19.60
2021,08,12,02,29,19.60
2021,08,12,02,30,19.60
2021,08,12,02,31,19.60
2021,08,12,02,32,19.50
2021,08,12,02,33,19.50
2021,08,12,02,34,19.60
2021,08,12,02,35,19.60
2021,08,12,02,36,19.50
2021,08,12,02,37,19.50
2021,08,12,02,38,19.50
2021,08,12,02,39,19.50
2021,08,12,02,40,19.50
2021,08,12,02,41,19.40
2021,08,12,02,42,19.40
2021,08,12,02,43,19.40
2021,08,12,02,44,19.40
2021,08,12,02,45,19.40
2021,08,12,02,46,19.40
2021,08,12,02,47,19.30
2021,08,12,02,48,19.30
2021,08,12,02,49,19.30
2021,08,12,02,50,19.30
2021,08,12,02,51,19.30
2021,08,12,02,52,19.30
2021,08,12,02,53,19.30
2021,08,12,02,54,19.30
2021,08,12,02,55,19.30
2021,08,12,02,56,19.30
2021,08,12,02,57,19.20
2021,08,12,02,58,19.20
2021,08,12,02,59,19.20
2021,08,12,03,00,19.20
2021,08,12,03,01,19.20
2021,08,12,03,02,19.20
2021,08,12,03,03,19.20
2021,08,12,03,04,19.20
2021,08,12,03,05,19.10
2021,08,12,03,06,19.10
2021,08,12,03,07,19.10
2021,08,12,03,08,19.10
2021,08,12,03,09,19.10
2021,08,12,03,10,19.10
2021,08,12,03,11,19.10
2021,08,12,03,12,19.10
2021,08,12,03,13,19.10
2021,08,12,03,14,19.10
2021,08,12,03,15,19.10
2021,08,12,03,16,19.10
2021,08,12,03,17,19.10
2021,08,12,03,18,19.10
2021,08,12,03,19,19.10
2021,08,12,03,20,19.10
2021,08,12,03,21,19.10
2021,08,12,03,22,19.10
2021,08,12,03,23,19.10
2021,08,12,03,24,19.10
2021,08,12,03,25,19.10
2021,08,12,03,26,19.10
2021,08,12,03,27,19.10
2021,08,12,03,28,19.10
2021,08,12,03,29,19.10
2021,08,12,03,30,19.10
2021,08,12,03,31,19.00
2021,08,12,03,32,19.10
2021,08,12,03,33,19.00
2021,08,12,03,34,19.00
2021,08,12,03,35,19.00
2021,08,12,03,36,19.00
2021,08,12,03,37,19.00
2021,08,12,03,38,19.00
2021,08,12,03,39,19.00
2021,08,12,03,40,18.90
2021,08,12,03,41,18.90
2021,08,12,03,42,18.90
2021,08,12,03,43,18.90
2021,08,12,03,44,18.90
2021,08,12,03,45,18.90
2021,08,12,03,46,18.90
2021,08,12,03,47,18.90
2021,08,12,03,48,18.90
2021,08,12,03,49,18.90
2021,08,12,03,50,18.90
2021,08,12,03,51,18.90
2021,08,12,03,52,18.90
2021,08,12,03,53,18.90
2021,08,12,03,54,18.90
2021,08,12,03,55,18.90
2021,08,12,03,56,18.90
2021,08,12,03,57,18.90
2021,08,12,03,58,18.80
2021,08,12,03,59,18.80
2021,08,12,04,00,18.80
2021,08,12,04,01,18.80
2021,08,12,04,02,18.80
2021,08,12,04,03,18.80
2021,08,12,04,04,18.80
2021,08,12,04,05,18.80
2021,08,12,04,06,18.70
2021,08,12,04,07,18.70
2021,08,12,04,08,18.70
2021,08,12,04,09,18.70
2021,08,12,04,10,18.70
2021,08,12,04,11,18.70
2021,08,12,04,12,18.70
2021,08,12,04,13,18.70
2021,08,12,04,14,18.70
2021,08,12,04,15,18.70
2021,08,12,04,16,18.70
2021,08,12,04,17,18.60
2021,08,12,04,18,18.60
2021,08,12,04,19,18.60
2021,08,12,04,20,18.60
2021,08,12,04,21,18.60
2021,08,12,04,22,18.60
2021,08,12,04,23,18.60
2021,08,12,04,24,18.60
2021,08,12,04,25,18.50
2021,08,12,04,26,18.50
2021,08,12,04,27,18.50
2021,08,12,04,28,18.50
2021,08,12,04,29,18.50
2021,08,12,04,30,18.50
2021,08,12,04,31,18.50
2021,08,12,04,32,18.50
2021,08,12,04,33,18.50
2021,08,12,04,34,18.50
2021,08,12,04,35,18.40
2021,08,12,04,36,18.40
2021,08,12,04,37,18.40
2021,08,12,04,38,18.40
2021,08,12,04,39,18.40
2021,08,12,04,40,18.40
2021,08,12,04,41,18.40
2021,08,12,04,42,18.40
2021,08,12,04,43,18.40
2021,08,12,04,44,18.40
2021,08,12,04,45,18.40
2021,08,12,04,46,18.40
2021,08,12,04,47,18.40
2021,08,12,04,48,18.40
2021,08,12,04,49,18.40
2021,08,12,04,50,18.40
2021,08,12,04,51,18.40
2021,08,12,04,52,18.40
2021,08,12,04,53,18.40
2021,08,12,04,54,18.40
2021,08,12,04,55,18.40
2021,08,12,04,56,18.40
2021,08,12,04,57,18.40
2021,08,12,04,58,18.40
2021,08,12,04,59,18.40
2021,08,12,05,00,18.40
2021,08,12,05,01,18.40
2021,08,12,05,02,18.30
2021,08,12,05,03,18.40
2021,08,12,05,04,18.30
2021,08,12,05,05,18.30
2021,08,12,05,06,18.30
2021,08,12,05,07,18.30
2021,08,12,05,08,18.30
2021,08,12,05,09,18.30
2021,08,12,05,10,18.30
2021,08,12,05,11,18.30
2021,08,12,05,12,18.30
2021,08,12,05,13,18.20
2021,08,12,05,14,18.20
2021,08,12,05,15,18.20
2021,08,12,05,16,18.20
2021,08,12,05,17,18.20
2021,08,12,05,18,18.20
2021,08,12,05,19,18.20
2021,08,12,05,20,18.20
2021,08,12,05,21,18.20
2021,08,12,05,22,18.20
2021,08,12,05,23,18.20
2021,08,12,05,24,18.20
2021,08,12,05,25,18.10
2021,08,12,05,26,18.10
2021,08,12,05,27,18.10
2021,08,12,05,28,18.10
2021,08,12,05,29,18.10
2021,08,12,05,30,18.10
2021,08,12,05,31,18.00
2021,08,12,05,32,18.00
2021,08,12,05,33,18.00
2021,08,12,05,34,18.00
2021,08,12,05,35,17.90
2021,08,12,05,36,17.90
2021,08,12,05,37,17.90
2021,08,12,05,38,17.90
2021,08,12,05,39,17.90
2021,08,12,05,40,17.80
2021,08,12,05,41,17.80
2021,08,12,05,42,17.80
2021,08,12,05,43,17.80
2021,08,12,05,44,17.80
2021,08,12,05,45,17.70
2021,08,12,05,46,17.70
2021,08,12,05,47,17.70
2021,08,12,05,48,17.70
2021,08,12,05,49,17.70
2021,08,12,05,50,17.70
2021,08,12,05,51,17.70
2021,08,12,05,52,17.70
2021,08,12,05,53,17.70
2021,08,12,05,54,17.70
2021,08,12,05,55,17.70
2021,08,12,05,56,17.70
2021,08,12,05,57,17.70
2021,08,12,05,58,17.70
2021,08,12,05,59,17.70
2021,08,12,06,00,17.70
2021,08,12,06,01,17.70
2021,08,12,06,02,17.60
2021,08,12,06,03,17.60
2021,08,12,06,04,17.60
2021,08,12,06,05,17.70
2021,08,12,06,06,17.70
2021,08,12,06,07,17.70
2021,08,12,06,08,17.70
2021,08,12,06,09,17.70
2021,08,12,06,10,17.70
2021,08,12,06,11,17.70
2021,08,12,06,12,17.70
2021,08,12,06,13,17.70
2021,08,12,06,14,17.70
2021,08,12,06,15,17.70
2021,08,12,06,16,17.70
2021,08,12,06,17,17.70
2021,08,12,06,18,17.70
2021,08,12,06,19,17.70
2021,08,12,06,20,17.70
2021,08,12,06,21,17.70
2021,08,12,06,22,17.70
2021,08,12,06,23,17.70
2021,08,12,06,24,17.60
2021,08,12,06,25,17.60
2021,08,12,06,26,17.60
2021,08,12,06,27,17.60
2021,08,12,06,28,17.60
2021,08,12,06,29,17.60
2021,08,12,06,30,17.60
2021,08,12,06,31,17.60
2021,08,12,06,32,17.60
2021,08,12,06,33,17.70
2021,08,12,06,34,17.70
2021,08,12,06,35,17.80
2021,08,12,06,36,17.80
2021,08,12,06,37,17.80
2021,08,12,06,38,17.80
2021,08,12,06,39,17.80
2021,08,12,06,40,17.80
2021,08,12,06,41,17.70
2021,08,12,06,42,17.70
2021,08,12,06,43,17.70
2021,08,12,06,44,17.70
2021,08,12,06,45,17.70
2021,08,12,06,46,17.70
2021,08,12,06,47,17.70
2021,08,12,06,48,17.70
2021,08,12,06,49,17.70
2021,08,12,06,50,17.80
2021,08,12,06,51,17.80
2021,08,12,06,52,17.80
2021,08,12,06,53,17.80
2021,08,12,06,54,17.80
2021,08,12,06,55,17.90
2021,08,12,06,56,17.90
2021,08,12,06,57,17.90
2021,08,12,06,58,17.90
2021,08,12,06,59,17.90
2021,08,12,07,00,17.90
2021,08,12,07,01,18.00
2021,08,12,07,02,18.00
2021,08,12,07,03,18.00
2021,08,12,07,04,18.10
2021,08,12,07,05,18.10
2021,08,12,07,06,18.10
2021,08,12,07,07,18.20
2021,08,12,07,08,18.20
2021,08,12,07,09,18.30
2021,08,12,07,10,18.30
2021,08,12,07,11,18.30
2021,08,12,07,12,18.40
2021,08,12,07,13,18.40
2021,08,12,07,14,18.50
2021,08,12,07,15,18.50
2021,08,12,07,16,18.60
2021,08,12,07,17,18.70
2021,08,12,07,18,18.80
2021,08,12,07,19,18.80
2021,08,12,07,20,18.80
2021,08,12,07,21,18.90
2021,08,12,07,22,18.90
2021,08,12,07,23,18.90
2021,08,12,07,24,19.00
2021,08,12,07,25,19.00
2021,08,12,07,26,19.10
2021,08,12,07,27,19.10
2021,08,12,07,28,19.20
2021,08,12,07,29,19.20
2021,08,12,07,30,19.20
2021,08,12,07,31,19.30
2021,08,12,07,32,19.30
2021,08,12,07,33,19.30
2021,08,12,07,34,19.40
2021,08,12,07,35,19.40
2021,08,12,07,36,19.40
2021,08,12,07,37,19.50
2021,08,12,07,38,19.50
2021,08,12,07,39,19.60
2021,08,12,07,40,19.60
2021,08,12,07,41,19.60
2021,08,12,07,42,19.60
2021,08,12,07,43,19.70
2021,08,12,07,44,19.70
2021,08,12,07,45,19.90
2021,08,12,07,46,19.90
2021,08,12,07,47,20.00
2021,08,12,07,48,20.10
2021,08,12,07,49,20.10
2021,08,12,07,50,20.20
2021,08,12,07,51,20.30
2021,08,12,07,52,20.30
2021,08,12,07,53,20.30
2021,08,12,07,54,20.40
2021,08,12,07,55,20.40
2021,08,12,07,56,20.50
2021,08,12,07,57,20.50
2021,08,12,07,58,20.60
2021,08,12,07,59,20.60
2021,08,12,08,00,20.70
2021,08,12,08,01,20.70
2021,08,12,08,02,20.70
2021,08,12,08,03,20.80
2021,08,12,08,04,20.80
2021,08,12,08,05,20.80
2021,08,12,08,06,20.80
2021,08,12,08,07,20.90
2021,08,12,08,08,20.90
2021,08,12,08,09,21.00
2021,08,12,08,10,21.00
2021,08,12,08,11,21.10
2021,08,12,08,12,21.10
2021,08,12,08,13,21.20
2021,08,12,08,14,21.20
2021,08,12,08,15,21.30
2021,08,12,08,16,21.30
2021,08,12,08,17,21.40
2021,08,12,08,18,21.40
2021,08,12,08,19,21.50
2021,08,12,08,20,21.50
2021,08,12,08,21,21.60
2021,08,12,08,22,21.60
2021,08,12,08,23,21.70
2021,08,12,08,24,21.70
2021,08,12,08,25,21.80
2021,08,12,08,26,21.80
2021,08,12,08,27,21.90
2021,08,12,08,28,22.00
2021,08,12,08,29,22.10
2021,08,12,08,30,22.10
2021,08,12,08,31,22.20
2021,08,12,08,32,22.30
2021,08,12,08,33,22.30
2021,08,12,08,34,22.40
2021,08,12,08,35,22.40
2021,08,12,08,36,22.40
2021,08,12,08,37,22.50
2021,08,12,08,38,22.60
2021,08,12,08,39,22.60
2021,08,12,08,40,22.60
2021,08,12,08,41,22.70
2021,08,12,08,42,22.70
2021,08,12,08,43,22.80
2021,08,12,08,44,22.80
2021,08,12,08,45,22.90
2021,08,12,08,46,22.90
2021,08,12,08,47,22.90
2021,08,12,08,48,23.00
2021,08,12,08,49,23.00
2021,08,12,08,50,23.10
2021,08,12,08,51,23.20
2021,08,12,08,52,23.20
2021,08,12,08,53,23.30
2021,08,12,08,54,23.30
2021,08,12,08,55,23.40
2021,08,12,08,56,23.40
2021,08,12,08,57,23.50
2021,08,12,08,58,23.50
2021,08,12,08,59,23.60
2021,08,12,09,00,23.60
2021,08,12,09,01,23.70
2021,08,12,09,02,23.80
2021,08,12,09,03,23.80
2021,08,12,09,04,23.80
2021,08,12,09,05,23.90
2021,08,12,09,06,24.00
2021,08,12,09,07,24.00
2021,08,12,09,08,24.10
2021,08,12,09,09,24.10
2021,08,12,09,10,24.20
2021,08,12,09,11,24.30
2021,08,12,09,12,24.30
2021,08,12,09,13,24.40
2021,08,12,09,14,24.50
2021,08,12,09,15,24.50
2021,08,12,09,16,24.60
2021,08,12,09,17,24.70
2021,08,12,09,18,24.70
2021,08,12,09,19,24.70
2021,08,12,09,20,24.80
2021,08,12,09,21,24.80
2021,08,12,09,22,24.90
2021,08,12,09,23,24.90
2021,08,12,09,24,24.90
2021,08,12,09,25,25.00
2021,08,12,09,26,25.00
2021,08,12,09,27,25.10
2021,08,12,09,28,25.20
2021,08,12,09,29,25.20
2021,08,12,09,30,25.30
2021,08,12,09,31,25.30
2021,08,12,09,32,25.40
2021,08,12,09,33,25.40
2021,08,12,09,34,25.40
2021,08,12,09,35,25.50
2021,08,12,09,36,25.60
2021,08,12,09,37,25.60
2021,08,12,09,38,25.60
2021,08,12,09,39,25.70
2021,08,12,09,40,25.80
2021,08,12,09,41,25.80
2021,08,12,09,42,25.80
2021,08,12,09,43,25.90
2021,08,12,09,44,26.00
2021,08,12,09,45,26.10
2021,08,12,09,46,26.20
2021,08,12,09,47,26.20
2021,08,12,09,48,26.30
2021,08,12,09,49,26.40
2021,08,12,09,50,26.40
2021,08,12,09,51,26.50
2021,08,12,09,52,26.60
2021,08,12,09,53,26.60
2021,08,12,09,54,26.70
2021,08,12,09,55,26.80
2021,08,12,09,56,26.90
2021,08,12,09,57,27.00
2021,08,12,09,58,27.10
2021,08,12,09,59,27.20
2021,08,12,10,00,27.20
2021,08,12,10,01,27.30
2021,08,12,10,02,27.40
2021,08,12,10,03,27.50
2021,08,12,10,04,27.60
2021,08,12,10,05,27.70
2021,08,12,10,06,27.80
2021,08,12,10,07,27.90
2021,08,12,10,08,28.00
2021,08,12,10,09,28.10
2021,08,12,10,10,28.30
2021,08,12,10,11,28.30
2021,08,12,10,12,28.40
2021,08,12,10,13,28.40
2021,08,12,10,14,28.50
2021,08,12,10,15,28.60
2021,08,12,10,16,28.70
2021,08,12,10,17,28.80
2021,08,12,10,18,28.90
2021,08,12,10,19,28.90
2021,08,12,10,20,28.90
2021,08,12,10,21,28.90
2021,08,12,10,22,29.00
2021,08,12,10,23,29.00
2021,08,12,10,24,29.10
2021,08,12,10,25,29.10
2021,08,12,10,26,29.20
2021,08,12,10,27,29.20
2021,08,12,10,28,29.30
2021,08,12,10,29,29.30
2021,08,12,10,30,29.30
2021,08,12,10,31,29.30
2021,08,12,10,32,29.30
2021,08,12,10,33,29.30
2021,08,12,10,34,29.30
2021,08,12,10,35,29.40
2021,08,12,10,36,29.40
2021,08,12,10,37,29.40
2021,08,12,10,38,29.50
2021,08,12,10,39,29.60
2021,08,12,10,40,29.70
2021,08,12,10,41,29.70
2021,08,12,10,42,29.70
2021,08,12,10,43,29.80
2021,08,12,10,44,29.80
2021,08,12,10,45,29.80
2021,08,12,10,46,29.80
2021,08,12,10,47,29.90
2021,08,12,10,48,29.90
2021,08,12,10,49,29.90
2021,08,12,10,50,29.90
2021,08,12,10,51,30.00
2021,08,12,10,52,30.00
2021,08,12,10,53,30.10
2021,08,12,10,54,30.10
2021,08,12,10,55,30.20
2021,08,12,10,56,30.30
2021,08,12,10,57,30.30
2021,08,12,10,58,30.40
2021,08,12,10,59,30.40
2021,08,12,11,00,30.50
2021,08,12,11,01,30.60
2021,08,12,11,02,30.60
2021,08,12,11,03,30.70
2021,08,12,11,04,30.80
2021,08,12,11,05,31.00
2021,08,12,11,06,31.20
2021,08,12,11,07,31.30
2021,08,12,11,08,31.30
2021,08,12,11,09,31.40
2021,08,12,11,10,31.40
2021,08,12,11,11,31.40
2021,08,12,11,12,31.40
2021,08,12,11,13,31.40
2021,08,12,11,14,31.50
2021,08,12,11,15,31.60
2021,08,12,11,16,31.60
2021,08,12,11,17,31.70
2021,08,12,11,18,31.90
2021,08,12,11,19,32.00
2021,08,12,11,20,32.10
2021,08,12,11,21,32.10
2021,08,12,11,22,32.10
2021,08,12,11,23,32.20
2021,08,12,11,24,32.20
2021,08,12,11,25,32.30
2021,08,12,11,26,32.40
2021,08,12,11,27,32.50
2021,08,12,11,28,32.60
2021,08,12,11,29,32.70
2021,08,12,11,30,32.80
2021,08,12,11,31,32.80
2021,08,12,11,32,33.00
2021,08,12,11,33,33.00
2021,08,12,11,34,33.10
2021,08,12,11,35,33.10
2021,08,12,11,36,33.20
2021,08,12,11,37,33.20
2021,08,12,11,38,33.30
2021,08,12,11,39,33.30
2021,08,12,11,40,33.40
2021,08,12,11,41,33.50
2021,08,12,11,42,33.60
2021,08,12,11,43,33.60
2021,08,12,11,44,33.60
2021,08,12,11,45,33.60
2021,08,12,11,46,33.60
2021,08,12,11,47,33.60
2021,08,12,11,48,33.60
2021,08,12,11,49,33.40
2021,08,12,11,50,33.30
2021,08,12,11,51,33.30
2021,08,12,11,52,33.30
2021,08,12,11,53,33.20
2021,08,12,11,54,33.30
2021,08,12,11,55,33.30
2021,08,12,11,56,33.30
2021,08,12,11,57,33.40
2021,08,12,11,58,33.40
2021,08,12,11,59,33.50
2021,08,12,12,00,33.50
2021,08,12,12,01,33.60
2021,08,12,12,02,33.60
2021,08,12,12,03,33.60
2021,08,12,12,04,33.60
2021,08,12,12,05,33.60
2021,08,12,12,06,33.40
2021,08,12,12,07,33.20
2021,08,12,12,08,33.00
2021,08,12,12,09,32.80
2021,08,12,12,10,32.70
2021,08,12,12,11,32.60
2021,08,12,12,12,32.40
2021,08,12,12,13,32.20
2021,08,12,12,14,32.10
2021,08,12,12,15,31.90
2021,08,12,12,16,31.80
2021,08,12,12,17,31.60
2021,08,12,12,18,31.50
2021,08,12,12,19,31.30
2021,08,12,12,20,31.30
2021,08,12,12,21,31.10
2021,08,12,12,22,31.10
2021,08,12,12,23,31.00
2021,08,12,12,24,30.80
2021,08,12,12,25,30.80
2021,08,12,12,26,30.60
2021,08,12,12,27,30.50
2021,08,12,12,28,30.50
2021,08,12,12,29,30.50
2021,08,12,12,30,30.50
2021,08,12,12,31,30.50
2021,08,12,12,32,30.40
2021,08,12,12,33,30.40
2021,08,12,12,34,30.30
2021,08,12,12,35,30.30
2021,08,12,12,36,30.20
2021,08,12,12,37,30.10
2021,08,12,12,38,30.00
2021,08,12,12,39,29.90
2021,08,12,12,40,29.70
2021,08,12,12,41,29.50
2021,08,12,12,42,29.40
2021,08,12,12,43,29.30
2021,08,12,12,44,29.20
2021,08,12,12,45,29.20
2021,08,12,12,46,29.10
2021,08,12,12,47,29.10
2021,08,12,12,48,29.10
2021,08,12,12,49,29.10
2021,08,12,12,50,29.10
2021,08,12,12,51,29.20
2021,08,12,12,52,29.30
2021,08,12,12,53,29.30
2021,08,12,12,54,29.30
2021,08,12,12,55,29.30
2021,08,12,12,56,29.30
2021,08,12,12,57,29.30
2021,08,12,12,58,29.40
2021,08,12,12,59,29.30
2021,08,12,13,00,29.30
2021,08,12,13,01,29.20
2021,08,12,13,02,29.20
2021,08,12,13,03,29.10
2021,08,12,13,04,29.10
2021,08,12,13,05,29.00
2021,08,12,13,06,28.90
2021,08,12,13,07,28.90
2021,08,12,13,08,28.90
2021,08,12,13,09,29.00
2021,08,12,13,10,29.00
2021,08,12,13,11,29.10
2021,08,12,13,12,29.20
2021,08,12,13,13,29.30
2021,08,12,13,14,29.50
2021,08,12,13,15,29.60
2021,08,12,13,16,29.80
2021,08,12,13,17,29.80
2021,08,12,13,18,29.90
2021,08,12,13,19,30.00
2021,08,12,13,20,30.10
2021,08,12,13,21,30.20
2021,08,12,13,22,30.20
2021,08,12,13,23,30.30
2021,08,12,13,24,30.40
2021,08,12,13,25,30.60
2021,08,12,13,26,30.70
2021,08,12,13,27,30.80
2021,08,12,13,28,31.00
2021,08,12,13,29,31.10
2021,08,12,13,30,31.20
2021,08,12,13,31,31.30
2021,08,12,13,32,31.40
2021,08,12,13,33,31.40
2021,08,12,13,34,31.50
2021,08,12,13,35,31.50
2021,08,12,13,36,31.60
2021,08,12,13,37,31.60
2021,08,12,13,38,31.70
2021,08,12,13,39,31.70
2021,08,12,13,40,31.80
2021,08,12,13,41,32.00
2021,08,12,13,42,32.10
2021,08,12,13,43,32.20
2021,08,12,13,44,32.30
2021,08,12,13,45,32.30
2021,08,12,13,46,32.30
2021,08,12,13,47,32.40
2021,08,12,13,48,32.40
2021,08,12,13,49,32.50
2021,08,12,13,50,32.60
2021,08,12,13,51,32.60
2021,08,12,13,52,32.70
2021,08,12,13,53,32.70
2021,08,12,13,54,32.60
2021,08,12,13,55,32.50
2021,08,12,13,56,32.30
2021,08,12,13,57,32.20
2021,08,12,13,58,32.10
2021,08,12,13,59,31.90
2021,08,12,14,00,31.90
2021,08,12,14,01,31.90
2021,08,12,14,02,31.80
2021,08,12,14,03,31.90
2021,08,12,14,04,31.90
2021,08,12,14,05,31.90
2021,08,12,14,06,31.90
2021,08,12,14,07,31.80
2021,08,12,14,08,31.80
2021,08,12,14,09,31.80
2021,08,12,14,10,31.70
2021,08,12,14,11,31.70
2021,08,12,14,12,31.60
2021,08,12,14,13,31.60
2021,08,12,14,14,31.50
2021,08,12,14,15,31.40
2021,08,12,14,16,31.40
2021,08,12,14,17,31.40
2021,08,12,14,18,31.50
2021,08,12,14,19,31.50
2021,08,12,14,20,31.50
2021,08,12,14,21,31.50
2021,08,12,14,22,31.40
2021,08,12,14,23,31.40
2021,08,12,14,24,31.40
2021,08,12,14,25,31.40
2021,08,12,14,26,31.40
2021,08,12,14,27,31.40
2021,08,12,14,28,31.50
2021,08,12,14,29,31.60
2021,08,12,14,30,31.60
2021,08,12,14,31,31.80
2021,08,12,14,32,31.80
2021,08,12,14,33,31.90
2021,08,12,14,34,31.90
2021,08,12,14,35,32.00
2021,08,12,14,36,32.10
2021,08,12,14,37,32.10
2021,08,12,14,38,32.10
2021,08,12,14,39,32.20
2021,08,12,14,40,32.30
2021,08,12,14,41,32.30
2021,08,12,14,42,32.20
2021,08,12,14,43,32.20
2021,08,12,14,44,32.00
2021,08,12,14,45,31.80
2021,08,12,14,46,31.60
2021,08,12,14,47,31.60
2021,08,12,14,48,31.60
2021,08,12,14,49,31.60
2021,08,12,14,50,31.60
2021,08,12,14,51,31.60
2021,08,12,14,52,31.50
2021,08,12,14,53,31.40
2021,08,12,14,54,31.40
2021,08,12,14,55,31.30
2021,08,12,14,56,31.30
2021,08,12,14,57,31.40
2021,08,12,14,58,31.40
2021,08,12,14,59,31.50
2021,08,12,15,00,31.50
2021,08,12,15,01,31.50
2021,08,12,15,02,31.50
2021,08,12,15,03,31.50
2021,08,12,15,04,31.50
2021,08,12,15,05,31.50
2021,08,12,15,06,31.60
2021,08,12,15,07,31.70
2021,08,12,15,08,31.80
2021,08,12,15,09,31.90
2021,08,12,15,10,32.00
2021,08,12,15,11,32.10
2021,08,12,15,12,32.10
2021,08,12,15,13,32.10
2021,08,12,15,14,32.10
2021,08,12,15,15,32.10
2021,08,12,15,16,32.10
2021,08,12,15,17,32.20
2021,08,12,15,18,32.20
2021,08,12,15,19,32.30
2021,08,12,15,20,32.40
2021,08,12,15,21,32.50
2021,08,12,15,22,32.60
2021,08,12,15,23,32.70
2021,08,12,15,24,32.80
2021,08,12,15,25,32.90
2021,08,12,15,26,33.00
2021,08,12,15,27,33.10
2021,08,12,15,28,33.20
2021,08,12,15,29,33.30
2021,08,12,15,30,33.50
2021,08,12,15,31,33.60
2021,08,12,15,32,33.70
2021,08,12,15,33,33.90
2021,08,12,15,34,34.00
2021,08,12,15,35,34.10
2021,08,12,15,36,34.30
2021,08,12,15,37,34.30
2021,08,12,15,38,34.40
2021,08,12,15,39,34.50
2021,08,12,15,40,34.50
2021,08,12,15,41,34.60
2021,08,12,15,42,34.70
2021,08,12,15,43,34.80
2021,08,12,15,44,34.80
2021,08,12,15,45,34.80
2021,08,12,15,46,34.80
2021,08,12,15,47,34.80
2021,08,12,15,48,34.70
2021,08,12,15,49,34.70
2021,08,12,15,50,34.60
2021,08,12,15,51,34.50
2021,08,12,15,52,34.50
2021,08,12,15,53,34.50
2021,08,12,15,54,34.50
2021,08,12,15,55,34.40
2021,08,12,15,56,34.30
2021,08,12,15,57,34.30
2021,08,12,15,58,34.30
2021,08,12,15,59,34.30
2021,08,12,16,00,34.30
2021,08,12,16,01,34.30
2021,08,12,16,02,34.30
2021,08,12,16,03,34.30
2021,08,12,16,04,34.40
2021,08,12,16,05,34.40
2021,08,12,16,06,34.40
2021,08,12,16,07,34.40
2021,08,12,16,08,34.50
2021,08,12,16,09,34.50
2021,08,12,16,10,34.50
2021,08,12,16,11,34.50
2021,08,12,16,12,34.60
2021,08,12,16,13,34.60
2021,08,12,16,14,34.60
2021,08,12,16,15,34.70
2021,08,12,16,16,34.70
2021,08,12,16,17,34.80
2021,08,12,16,18,34.90
2021,08,12,16,19,34.90
2021,08,12,16,20,35.00
2021,08,12,16,21,35.10
2021,08,12,16,22,35.20
2021,08,12,16,23,35.20
2021,08,12,16,24,35.30
2021,08,12,16,25,35.40
2021,08,12,16,26,35.50
2021,08,12,16,27,35.60
2021,08,12,16,28,35.60
2021,08,12,16,29,35.80
2021,08,12,16,30,35.90
2021,08,12,16,31,36.00
2021,08,12,16,32,36.10
2021,08,12,16,33,36.10
2021,08,12,16,34,36.10
2021,08,12,16,35,36.10
2021,08,12,16,36,36.10
2021,08,12,16,37,36.00
2021,08,12,16,38,36.00
2021,08,12,16,39,35.80
2021,08,12,16,40,35.80
2021,08,12,16,41,35.70
2021,08,12,16,42,35.70
2021,08,12,16,43,35.60
2021,08,12,16,44,35.60
2021,08,12,16,45,35.60
2021,08,12,16,46,35.60
2021,08,12,16,47,35.60
2021,08,12,16,48,35.50
2021,08,12,16,49,35.50
2021,08,12,16,50,35.50
2021,08,12,16,51,35.50
2021,08,12,16,52,35.40
2021,08,12,16,53,35.40
2021,08,12,16,54,35.30
2021,08,12,16,55,35.20
2021,08,12,16,56,35.10
2021,08,12,16,57,35.10
2021,08,12,16,58,35.00
2021,08,12,16,59,34.90
2021,08,12,17,00,34.80
2021,08,12,17,01,34.80
2021,08,12,17,02,34.70
2021,08,12,17,03,34.60
2021,08,12,17,04,34.50
2021,08,12,17,05,34.30
2021,08,12,17,06,34.20
2021,08,12,17,07,34.10
2021,08,12,17,08,34.00
2021,08,12,17,09,33.90
2021,08,12,17,10,33.80
2021,08,12,17,11,33.70
2021,08,12,17,12,33.60
2021,08,12,17,13,33.50
2021,08,12,17,14,33.40
2021,08,12,17,15,33.40
2021,08,12,17,16,33.30
2021,08,12,17,17,33.30
2021,08,12,17,18,33.40
2021,08,12,17,19,33.40